[[{"header":{"parameterUnit":"m.s-1","parameterCategory":1,"la1":30.2991,"la2":30.254,"lo1":-89.0895,"lo2":-89.0444,"dy":0.0017,"dx":0.0017,"nx":28,"ny":28,"refTime":"2023-09-27T03:00:00:Z","depth":0,"parameterNumber":2,"parameterNumberName":"U-component_of_WINDS"},"data":[0,0,0,0,0,0,0,0,0,0,0,0,0,0,0,0,0,0,0,0,0,0,0,0,0,0,0,0,0,0,0,0,0,0,0,0,0,0,0,0,0,0,0,0,0,0,0,0,0,0,0,0,0,0,0,0,0,0,-4.6008,-4.6008,0,-4.6061,-4.6062,-4.6062,-4.5953,-4.5949,-4.5946,-4.5943,-4.5997,-4.6001,-4.6006,0,0,0,0,0,0,0,0,0,0,0,0,0,-4.581,-4.5814,-4.6008,-4.6008,-4.6009,-4.6061,-4.6062,-4.6062,-4.5954,-4.5949,-4.5945,-4.5941,-4.5995,-4.6001,-4.6006,0,0,0,0,0,0,0,0,0,0,0,0,0,-4.5883,-4.5816,-4.6008,-4.5961,-4.5957,-4.6061,-4.6062,-4.6062,-4.5955,-4.5949,-4.5944,-4.5939,-4.5993,-4.6,-4.6007,-4.6158,0,0,-4.6029,-4.6032,0,0,0,0,0,0,0,0,-4.5879,-4.589,-4.5967,-4.5964,-4.5961,-4.5995,-4.6011,-4.6094,-4.5956,-4.5956,-4.5942,-4.5936,-4.6,-4.6006,-4.6028,-4.616,-4.6163,-4.6029,-4.6034,-4.6037,-4.6039,0,0,0,0,0,0,0,-4.5874,-4.5887,-4.6029,-4.5968,-4.5964,-4.5937,-4.5941,-4.6027,-4.6007,-4.5955,-4.5947,-4.5955,-4.5997,-4.6022,-4.6029,-4.6163,-4.6029,-4.6036,-4.604,-4.6043,-4.642,-4.6426,0,0,0,0,0,0,-4.5875,-4.5884,-4.6027,-4.603,-4.5906,-4.5945,-4.595,-4.5989,-4.6006,-4.6003,-4.596,-4.595,-4.6012,-4.602,-4.603,-4.6207,-4.6037,-4.6043,-4.6048,-4.6415,-4.6422,-4.6428,0,0,0,0,0,0,-4.5871,-4.5889,-4.6025,-4.5955,-4.597,-4.5954,-4.5999,-4.5993,-4.6017,-4.6009,-4.6005,-4.5988,-4.6008,-4.602,-4.6127,-4.6207,-4.6047,-4.6053,-4.6408,-4.6417,-4.6425,-4.6563,0,0,0,0,0,0,-4.5866,-4.5888,-4.5946,-4.5957,-4.5974,-4.6122,-4.6004,-4.5998,-4.603,-4.6018,-4.6035,-4.6033,-4.6005,-4.6117,-4.6134,-4.6214,-4.6059,-4.6401,-4.6412,-4.6422,-4.6551,-4.6575,-4.6596,0,0,0,0,0,-4.5859,-4.5983,-4.5949,-4.5967,-4.6046,-4.6127,-4.6136,-4.6102,-4.6037,-4.6094,-4.6089,-4.6032,-4.6196,-4.6128,-4.6147,-4.6231,-4.6395,-4.6409,-4.6421,-4.6541,-4.6571,-4.6596,0,0,0,0,0,0,-4.5982,-4.5984,-4.5946,-4.6077,-4.6103,-4.6108,-4.618,-4.6134,-4.6178,-4.6165,-4.612,-4.6125,-4.624,-4.6246,-4.6171,-4.6377,-4.6284,-4.6302,-4.6369,-4.6397,-4.6419,-4.6416,-4.6065,0,0,0,0,0,-4.6024,-4.609,-4.6087,-4.6203,-4.6217,-4.6197,-4.623,-4.6201,-4.6226,-4.6236,-4.6238,-4.6264,-4.632,-4.6359,-4.6411,-4.6551,-4.6553,-4.6618,-4.664,-4.6658,-4.6674,-4.6748,-4.6777,-4.6471,-4.647,-4.647,0,0,-4.6112,-4.6121,-4.6165,-4.6228,-4.6244,-4.6312,-4.6206,-4.6283,-4.6333,-4.6247,-4.6348,-4.6351,-4.6376,-4.65,-4.6554,-4.6508,-4.6759,-4.6675,-4.669,-4.6696,-4.6764,-4.6793,-4.6819,-4.6479,-4.6478,-4.6476,0,0,-4.6307,-4.6321,-4.6419,-4.6437,-4.6462,-4.6447,-4.6471,-4.6483,-4.6481,-4.6582,-4.6518,-4.6576,-4.6675,-4.6696,-4.6719,-4.692,-4.687,-4.6938,-4.7056,-4.7128,-4.7152,-4.7173,-4.7245,-4.7271,-4.6954,-4.6954,-4.6954,0,-4.6414,-4.6515,-4.6474,-4.6556,-4.6585,-4.6509,-4.6607,-4.6626,-4.6668,-4.6689,-4.6637,-4.6759,-4.677,-4.6897,-4.6947,-4.6968,-4.6993,-4.6937,-4.7152,-4.7173,-4.7192,-4.726,-4.7287,-4.6962,-4.6961,-4.6961,-4.696,0,-4.6644,-4.6714,-4.679,-4.6832,-4.6869,-4.6958,-4.6931,-4.6973,-4.694,-4.6931,-4.7033,-4.7044,-4.7097,-4.7125,-4.7094,-4.7248,-4.7218,-4.716,-4.7066,-4.723,-4.7293,-4.7319,-4.6974,-4.6971,-4.6969,-4.6967,0,0,-4.6919,-4.6937,-4.6965,-4.6983,-4.7004,-4.7058,-4.7143,-4.7194,-4.7231,-4.7262,-4.7332,-4.7416,-4.7362,-4.7389,-4.7359,-4.7422,-4.7581,-4.7356,-4.7356,-4.7397,-4.775,-4.7795,-4.7825,-4.7547,-4.7551,-4.7555,-4.7748,0,-4.7113,-4.726,-4.7226,-4.7371,-4.7435,-4.7363,-4.7437,-4.7458,-4.7451,-4.7504,-4.7495,-4.7556,-4.748,-4.7495,-4.7555,-4.7549,-4.7651,-4.7534,-4.7611,-4.7614,-4.7608,-4.7858,-4.7906,-4.8087,-4.7772,-4.7777,-4.778,0,-4.7359,-4.7399,-4.755,-4.756,-4.7586,-4.7653,-4.7697,-4.7748,-4.777,-4.776,-4.7789,-4.7747,-4.783,-4.7735,-4.7848,-4.777,-4.7799,-4.78,-4.7807,-4.7813,-4.7708,-4.7872,-4.8144,-4.8172,-4.7818,-4.7815,-4.7812,0,-4.7545,-4.7636,-4.7738,-4.7755,-4.777,-4.7819,-4.7827,-4.7843,-4.7876,-4.7913,-4.7934,-4.7981,-4.8007,-4.8044,-4.8015,-4.7948,-4.8133,-4.8036,-4.8127,-4.8128,-4.817,-4.8168,-4.8452,-4.8188,-4.8188,-4.8187,-4.8187,0,-4.7765,-4.7861,-4.7822,-4.7885,-4.7989,-4.7948,-4.8052,-4.8052,-4.8067,-4.8128,-4.8069,-4.8127,-4.8085,-4.8139,-4.8117,-4.8214,-4.8226,-4.822,-4.8214,-4.8226,-4.8227,-4.8245,-4.8232,-4.8195,-4.8193,-4.8192,-4.819,0,-4.7991,-4.7969,-4.8076,-4.808,-4.8083,-4.816,-4.8164,-4.8222,-4.8209,-4.8287,-4.8303,-4.8284,-4.8345,-4.8319,-4.8384,-4.8369,-4.8494,-4.847,-4.8487,-4.8481,-4.8574,-4.8566,-4.888,-4.8919,-4.863,-4.8633,-4.8635,0,-4.8134,-4.8205,-4.8217,-4.8254,-4.8266,-4.8326,-4.8359,-4.832,-4.8357,-4.8386,-4.8441,-4.8496,-4.8539,-4.864,-4.8632,-4.868,-4.8657,-4.8764,-4.8664,-4.8675,-4.8659,-4.8655,-4.8662,-4.8784,-4.8788,-4.879,-4.8793,0,-4.8389,-4.8374,-4.8423,-4.8469,-4.851,-4.8544,-4.8573,-4.8606,-4.8569,-4.8612,-4.8674,-4.8707,-4.8772,-4.8829,-4.8871,-4.8879,-4.883,-4.8824,-4.8847,-4.8862,-4.8869,-4.8866,-4.8542,-4.8817,-4.8815,-4.8813,-4.8811,-4.881,-4.8577,-4.8637,-4.8655,-4.8712,-4.8729,-4.8757,-4.8812,-4.8806,-4.8857,-4.8907,-4.8881,-4.8953,-4.8971,-4.9023,-4.9037,-4.9092,-4.905,-4.9085,-4.9094,-4.9103,-4.9115,-4.8859,-4.91,-4.9099,-4.9098,-4.9098,-4.9097,0,-4.8829,-4.8836,-4.8889,-4.8931,-4.8976,-4.8925,-4.8954,-4.8994,-4.9058,-4.908,-4.9123,-4.9193,-4.9247,-4.9242,-4.9291,-4.9336,-4.9315,-4.935,-4.9347,-4.935,-4.915,-4.9125,-4.9367,-4.9367,-4.9367,-4.9367,-4.9367,-4.9367,-4.8965,-4.9064,-4.9051,-4.9157,-4.9164,-4.9234,-4.9255,-4.928,-4.9296,-4.9378,-4.9422,-4.9418,-4.9429,-4.9478,-4.9525,-4.9522,-4.9543,-4.9587,-4.9576,-4.939,-4.9364,-4.9338,-4.9314,-4.9592,-4.9592,-4.9771,-4.9773,-4.9774]},{"header":{"parameterUnit":"m.s-1","parameterCategory":1,"la1":30.2991,"la2":30.254,"lo1":-89.0895,"lo2":-89.0444,"dy":0.0017,"dx":0.0017,"nx":28,"ny":28,"refTime":"2023-09-27T03:00:00:Z","depth":0,"parameterNumber":3,"parameterNumberName":"V-component_of_WINDS"},"data":[0,0,0,0,0,0,0,0,0,0,0,0,0,0,0,0,0,0,0,0,0,0,0,0,0,0,0,0,0,0,0,0,0,0,0,0,0,0,0,0,0,0,0,0,0,0,0,0,0,0,0,0,0,0,0,0,0,0,-3.8913,-3.8914,0,-3.8978,-3.8979,-3.898,-3.8944,-3.8942,-3.894,-3.8939,-3.9002,-3.9006,-3.9009,0,0,0,0,0,0,0,0,0,0,0,0,0,-3.8753,-3.8756,-3.8913,-3.8914,-3.8915,-3.8978,-3.8979,-3.898,-3.8944,-3.8942,-3.894,-3.8938,-3.9001,-3.9005,-3.9009,0,0,0,0,0,0,0,0,0,0,0,0,0,-3.8821,-3.8757,-3.8913,-3.8904,-3.8904,-3.8978,-3.8979,-3.898,-3.8945,-3.8942,-3.8939,-3.8937,-3.9,-3.9005,-3.901,-3.9094,0,0,-3.9025,-3.9027,0,0,0,0,0,0,0,0,-3.8817,-3.8827,-3.8905,-3.8905,-3.8905,-3.895,-3.8946,-3.9018,-3.8945,-3.8929,-3.8938,-3.8935,-3.8987,-3.8993,-3.9011,-3.9097,-3.91,-3.9026,-3.9029,-3.9031,-3.9032,0,0,0,0,0,0,0,-3.8812,-3.8823,-3.8939,-3.8906,-3.8906,-3.8896,-3.8903,-3.8959,-3.8972,-3.893,-3.8928,-3.8936,-3.8986,-3.9006,-3.9012,-3.9101,-3.9025,-3.903,-3.9033,-3.9035,-3.9257,-3.926,0,0,0,0,0,0,-3.8809,-3.882,-3.8937,-3.8941,-3.8854,-3.8901,-3.8908,-3.8938,-3.8971,-3.8974,-3.8939,-3.8934,-3.8999,-3.9006,-3.9014,-3.9114,-3.9031,-3.9035,-3.9038,-3.9254,-3.9258,-3.9261,0,0,0,0,0,0,-3.8805,-3.8819,-3.8934,-3.888,-3.8893,-3.8907,-3.894,-3.8941,-3.8961,-3.8978,-3.8979,-3.8957,-3.8997,-3.9007,-3.9074,-3.9116,-3.9038,-3.9042,-3.9251,-3.9255,-3.9259,-3.9315,0,0,0,0,0,0,-3.8801,-3.8818,-3.8852,-3.8881,-3.8896,-3.8995,-3.8943,-3.8944,-3.897,-3.8965,-3.8995,-3.8997,-3.8996,-3.9067,-3.9079,-3.9121,-3.9046,-3.9247,-3.9253,-3.9258,-3.9309,-3.932,-3.933,0,0,0,0,0,-3.8795,-3.8865,-3.8854,-3.8868,-3.8939,-3.8997,-3.9006,-3.9003,-3.8973,-3.9006,-3.9017,-3.8996,-3.9109,-3.9074,-3.9088,-3.9132,-3.9244,-3.9251,-3.9257,-3.9305,-3.9318,-3.933,0,0,0,0,0,0,-3.884,-3.8869,-3.8857,-3.8938,-3.8965,-3.8991,-3.9033,-3.9018,-3.9054,-3.9048,-3.9042,-3.9049,-3.9119,-3.9132,-3.9092,-3.9214,-3.9172,-3.9181,-3.9203,-3.9216,-3.9226,-3.9222,-3.905,0,0,0,0,0,-3.886,-3.8906,-3.8928,-3.8997,-3.9011,-3.902,-3.9045,-3.904,-3.9068,-3.9079,-3.9095,-3.9122,-3.9163,-3.919,-3.9229,-3.9311,-3.9316,-3.9347,-3.9358,-3.9366,-3.9374,-3.9416,-3.943,-3.9282,-3.9282,-3.9282,0,0,-3.89,-3.8921,-3.8951,-3.9006,-3.9027,-3.9074,-3.903,-3.9081,-3.9115,-3.9087,-3.9151,-3.9163,-3.9193,-3.9267,-3.93,-3.928,-3.9416,-3.9374,-3.9381,-3.9385,-3.9425,-3.9439,-3.9451,-3.9286,-3.9286,-3.9285,0,0,-3.8998,-3.9019,-3.9078,-3.91,-3.9132,-3.9137,-3.9151,-3.9178,-3.9185,-3.925,-3.9229,-3.9268,-3.934,-3.9361,-3.9381,-3.9484,-3.9466,-3.9497,-3.9551,-3.9592,-3.9604,-3.9614,-3.9649,-3.9662,-3.9505,-3.9505,-3.9505,0,-3.9044,-3.9114,-3.9111,-3.9163,-3.9187,-3.9164,-3.9223,-3.9244,-3.9287,-3.9303,-3.9279,-3.9367,-3.9386,-3.9464,-3.9489,-3.9506,-3.9521,-3.9494,-3.9603,-3.9613,-3.9622,-3.9656,-3.967,-3.9509,-3.9508,-3.9508,-3.9507,0,-3.9168,-3.9217,-3.9261,-3.9303,-3.9332,-3.9388,-3.9391,-3.942,-3.9413,-3.9419,-3.9484,-3.9504,-3.9546,-3.9564,-3.9558,-3.9641,-3.9627,-3.9603,-3.9561,-3.964,-3.9671,-3.9684,-3.9513,-3.9512,-3.9511,-3.951,0,0,-3.9298,-3.9336,-3.9352,-3.937,-3.9402,-3.9439,-3.9492,-3.9534,-3.9559,-3.9588,-3.9632,-3.9692,-3.9669,-3.9692,-3.9687,-3.9723,-3.9801,-3.9694,-3.9695,-3.9713,-3.9892,-3.991,-3.9925,-3.9789,-3.9792,-3.9794,-3.989,0,-3.9396,-3.9491,-3.9488,-3.9575,-3.9619,-3.9597,-3.9643,-3.9667,-3.9674,-3.9711,-3.9717,-3.976,-3.9728,-3.9741,-3.9776,-3.9785,-3.9837,-3.9778,-3.9828,-3.983,-3.9822,-3.9942,-3.9961,-4.0051,-3.9902,-3.9904,-3.9906,0,-3.9525,-3.9559,-3.9651,-3.9675,-3.9693,-3.9735,-3.9772,-3.9808,-3.9833,-3.9835,-3.986,-3.9849,-3.9901,-3.9857,-3.9927,-3.9887,-3.9907,-3.9914,-3.9917,-3.9922,-3.9873,-3.9949,-4.0079,-4.0093,-3.9925,-3.9924,-3.9922,0,-3.9609,-3.9677,-3.9741,-3.9757,-3.9787,-3.9816,-3.983,-3.9853,-3.9877,-3.9909,-3.9924,-3.9961,-3.9981,-4.0009,-4.0007,-3.9976,-4.0078,-4.0034,-4.008,-4.008,-4.0103,-4.0101,-4.0238,-4.0117,-4.0117,-4.0116,-4.0116,0,-3.9719,-3.9776,-3.9778,-3.9817,-3.9879,-3.9874,-3.9935,-3.9946,-3.9966,-4.0005,-3.9988,-4.0025,-4.002,-4.0056,-4.0055,-4.0113,-4.0122,-4.0124,-4.0123,-4.0126,-4.0125,-4.0139,-4.0132,-4.012,-4.0119,-4.0118,-4.0118,0,-3.9824,-3.9828,-3.9895,-3.9917,-3.9924,-3.9969,-3.9987,-4.0023,-4.0028,-4.0077,-4.0089,-4.0096,-4.0138,-4.0138,-4.0186,-4.0185,-4.0255,-4.0247,-4.0247,-4.0245,-4.0291,-4.0286,-4.044,-4.0459,-4.0326,-4.0328,-4.0329,0,-3.9894,-3.9937,-3.9964,-3.9989,-4.0005,-4.0046,-4.007,-4.0066,-4.0092,-4.0123,-4.0155,-4.0195,-4.0227,-4.0295,-4.0303,-4.0339,-4.0332,-4.0383,-4.0337,-4.0338,-4.0331,-4.0329,-4.0332,-4.0392,-4.0394,-4.0395,-4.0396,0,-4.0018,-4.0017,-4.0054,-4.0091,-4.0121,-4.015,-4.0176,-4.0197,-4.0196,-4.0226,-4.0268,-4.0293,-4.0342,-4.0381,-4.0415,-4.0428,-4.0411,-4.041,-4.0422,-4.0425,-4.0423,-4.0424,-4.0271,-4.0407,-4.0406,-4.0405,-4.0404,-4.0404,-4.0107,-4.0143,-4.0168,-4.0208,-4.0228,-4.0252,-4.0287,-4.0295,-4.0331,-4.0371,-4.0365,-4.0413,-4.0435,-4.0479,-4.0494,-4.053,-4.0512,-4.053,-4.0535,-4.0539,-4.0544,-4.0418,-4.0536,-4.0536,-4.0536,-4.0535,-4.0535,0,-4.0229,-4.0243,-4.0281,-4.0318,-4.035,-4.0332,-4.0359,-4.0386,-4.0429,-4.0451,-4.0483,-4.053,-4.0568,-4.0579,-4.0615,-4.0641,-4.0635,-4.0651,-4.0649,-4.0652,-4.0558,-4.0544,-4.0656,-4.0656,-4.0656,-4.0656,-4.0656,-4.0656,-4.0296,-4.0357,-4.0359,-4.0427,-4.044,-4.0487,-4.0504,-4.0526,-4.0544,-4.0598,-4.063,-4.0637,-4.0654,-4.0691,-4.0724,-4.0726,-4.0739,-4.0759,-4.0758,-4.067,-4.0658,-4.0647,-4.0633,-4.0762,-4.0762,-4.0848,-4.0849,-4.0849]}]]